STARLINK-36177

Last updated on Fri Dec 19 2025 00:02:08 GMT+0000 (Coordinated Universal Time)

1 66932U 25286H 25352.58336806 -.01299400 00000+0 -68800-2 0 9995 2 66932 53.1560 21.0480 0001091 61.7267 56.4418 15.82651921 2935
UTC large
Height (km)
Speed (km/s)
/
Latitude / Longitude
Inclination (degrees)
Orbital Period (minutes)
Azimuth
Elevation
Range (km)
Doppler Factor

Next 0 passes for location: London (51.5072 / 0.1276)

Sorry there are no passes over London.